Location: Keppel Henge
(44.7900°N, 80.9447°W)
Time: 22:03:16
(UTC-05:00)

Tiangong 2 - Visible Passes

Search period start: 21 January 2019 00:00
Search period end: 31 January 2019 00:00
Orbit: 380 x 392 km, 42.8° (Epoch: 21 January)

Date Brightness Start Highest point End Pass type
(mag) Time Alt. Az. Time Alt. Az. Time Alt. Az.
21 Jan 4.5 05:05:44 13° E 05:05:44 13° E 05:06:13 10° E visible
21 Jan 1.4 06:37:59 23° WSW 06:39:47 60° S 06:42:57 10° ESE visible
22 Jan 2.4 05:41:44 39° ESE 05:41:44 39° ESE 05:43:58 10° E visible
22 Jan 1.9 07:14:21 10° W 07:17:25 43° SSW 07:20:29 10° ESE visible
23 Jan 1.5 06:17:41 40° WSW 06:18:28 54° S 06:21:36 10° ESE visible
24 Jan 3.7 05:21:24 21° ESE 05:21:24 21° ESE 05:22:39 10° ESE visible
24 Jan 2.4 06:53:39 13° W 06:56:02 31° SSW 06:58:55 10° SE visible
25 Jan 1.9 05:57:22 41° S 05:57:22 41° S 06:00:09 10° ESE visible
26 Jan 4.6 05:01:07 11° ESE 05:01:07 11° ESE 05:01:16 10° ESE visible
26 Jan 2.8 06:33:22 17° WSW 06:34:34 21° SSW 06:37:05 10° SSE visible
27 Jan 3.3 05:37:09 21° SSE 05:37:09 21° SSE 05:38:32 10° SE visible
28 Jan 3.4 06:13:14 14° SSW 06:13:14 14° SSW 06:14:45 10° S visible
